Location: Warszawa
(52.2500°N, 21.0000°E)
Time: 23:23:32
(UTC+02:00)

AO-91 - Visible Passes

Search period start: 24 April 2024 00:00
Search period end: 04 May 2024 00:00
Orbit: 441 x 742 km, 97.6° (Epoch: 24 April)

Date Brightness Start Highest point End Pass type
(mag) Time Alt. Az. Time Alt. Az. Time Alt. Az.
24 Apr ? 22:31:00 10° NNE 22:34:21 89° E 22:34:41 71° S visible
25 Apr ? 22:39:27 10° N 22:42:47 73° WNW 22:43:21 57° SW visible
26 Apr ? 21:13:49 10° ENE 21:15:14 12° E 21:15:24 12° E visible
26 Apr ? 22:47:53 10° N 22:51:11 57° WNW 22:51:58 44° SW visible
27 Apr ? 21:21:40 10° NE 21:23:41 15° E 21:24:00 15° E visible
27 Apr ? 22:56:19 10° N 22:59:33 46° WNW 23:00:34 34° WSW visible
28 Apr ? 21:29:40 10° NE 21:32:07 18° E 21:32:35 18° ESE visible
28 Apr ? 23:04:44 10° N 23:07:52 37° WNW 23:09:09 26° WSW visible
29 Apr ? 21:37:44 10° NE 21:40:29 22° E 21:41:08 21° ESE visible
29 Apr ? 23:13:08 10° N 23:16:09 31° WNW 23:17:41 21° WSW visible
30 Apr ? 21:45:50 10° NE 21:48:49 27° E 21:49:39 25° ESE visible
30 Apr ? 23:21:32 10° N 23:24:23 26° WNW 23:26:12 17° WSW visible
01 May ? 21:53:57 10° NNE 21:57:07 34° E 21:58:08 28° SE visible
01 May ? 23:29:55 10° NNW 23:32:36 22° WNW 23:34:43 14° WSW visible
02 May ? 22:02:03 10° NNE 22:05:23 42° E 22:06:36 30° SSE visible
02 May ? 23:38:18 10° NNW 23:40:47 19° WNW 23:43:10 11° WSW visible
03 May ? 22:10:10 10° NNE 22:13:35 52° E 22:15:02 31° SSE visible
03 May ? 23:46:42 10° NNW 23:48:54 16° WNW 23:51:10 10° W visible
